Location: Christian Reformed Church
(43.0975°N, 93.8113°W)
Time: 06:58:30
(UTC+00:00)

Okean 1-7 Rocket - Pass Details

Date: 20 March 2026
Orbit: 609 x 643 km, 82.5° (Epoch: 14 April)

Event Time Altitude Azimuth Distance (km) Brightness Sun altitude
Rises 01:33:36 0° 236° (SW) 2,943 7.7 -13.0°
Reaches altitude 10° 01:37:00 10° 263° (W) 2,037 7.4 -13.6°
Maximum altitude 01:39:12 13° 293° (WNW) 1,821 7.2 -14.0°
Drops below altitude 10° 01:41:25 10° 322° (NW) 2,039 7.0 -14.4°
Sets 01:44:50 0° 349° (N) 2,948 7.4 -15.0°
